Winter Haven, FL

10:14 PM EST on November 23, 2017 (GMT -0500)
Winter Haven's-Gilbert

Weather History for KGIF - May, 2013

Change the Weather History Date:

Sunday, May 5, 2013

  Actual Average Record
Temperature  
Mean Temperature 70 °F -  
Max Temperature 79 °F 86 °F 94 °F (1950)
Min Temperature 63 °F 62 °F 37 °F (2002)
Cooling Degree Days 6    
Growing Degree Days 20 (Base 50)    
Moisture  
Dew Point 55 °F    
Average Humidity 66    
Maximum Humidity 90    
Minimum Humidity 28    
Precipitation  
Precipitation 0.00 in - - ()
Sea Level Pressure  
Sea Level Pressure 29.87 in    
Wind  
Wind Speed 10 mph (WNW)    
Max Wind Speed 18 mph    
Max Gust Speed 26 mph    
Visibility 10 miles    
Events      
Averages and records for this station are not official NWS values.
T = Trace of Precipitation, MM = Missing Value Source: NWS Daily Summary

Daily Weather History Graph

Daily Weather History Graph

Search for Another Location

Airport or City:

Trip Planner

Search our weather history database for the weather conditions in past years. The results will help you decide how hot, cold, wet, or windy it might be!

Date:

Astronomy

May. 05, 2013 Rise Set
Actual Time 6:43 AM EDT 8:04 PM EDT
Civil Twilight 6:18 AM EDT 8:29 PM EDT
Nautical Twilight 5:48 AM EDT 8:58 PM EDT
Astronomical Twilight 5:18 AM EDT 9:29 PM EDT
Moon 3:52 AM EDT (5/5) 4:20 PM EDT (5/5)
Length of Visible Light 14h 10m
Length of Day
13h 20m
Waning Crescent, 18% of the Moon is Illuminated
May 5
Waning Crescent
May 9
New
May 18
First Quarter
May 25
Full
May 31
Last Quarter

Hourly Weather History & Observations

Time (EDT) Temp. Dew Point Humidity Pressure Visibility Wind Dir Wind Speed Gust Speed Precip Events Conditions
12:53 AM 70.0 °F 66.0 °F 87% 29.82 in 9.0 mi West 5.8 mph - N/A   Clear
1:33 AM 69.1 °F 66.0 °F 90% 29.82 in 10.0 mi West 6.9 mph - N/A   Mostly Cloudy
1:53 AM 69.1 °F 66.0 °F 90% 29.80 in 10.0 mi West 6.9 mph - N/A   Overcast
2:53 AM 69.1 °F 64.9 °F 87% 29.79 in 10.0 mi West 9.2 mph - N/A   Overcast
3:07 AM 68.0 °F 64.9 °F 90% 29.79 in 10.0 mi WNW 11.5 mph - N/A   Overcast
3:15 AM 68.0 °F 64.9 °F 90% 29.80 in 10.0 mi WNW 11.5 mph 17.3 mph N/A   Overcast
3:31 AM 68.0 °F 64.9 °F 90% 29.80 in 10.0 mi West 11.5 mph - N/A   Overcast
3:53 AM 68.0 °F 64.0 °F 87% 29.80 in 10.0 mi WNW 11.5 mph - N/A   Overcast
4:33 AM 66.9 °F 64.0 °F 90% 29.80 in 10.0 mi WNW 9.2 mph - N/A   Overcast
4:53 AM 66.9 °F 63.0 °F 87% 29.80 in 10.0 mi WNW 12.7 mph - N/A   Overcast
5:35 AM 66.0 °F 61.0 °F 84% 29.82 in 10.0 mi WNW 9.2 mph - N/A   Overcast
5:53 AM 64.9 °F 60.1 °F 84% 29.82 in 10.0 mi WNW 13.8 mph 21.9 mph N/A   Overcast
6:06 AM 64.9 °F 59.0 °F 81% 29.83 in 10.0 mi NW 15.0 mph - N/A   Mostly Cloudy
6:17 AM 64.0 °F 59.0 °F 84% 29.84 in 10.0 mi WNW 12.7 mph - N/A   Scattered Clouds
6:53 AM 63.0 °F 57.9 °F 84% 29.85 in 10.0 mi NW 12.7 mph - N/A   Clear
7:53 AM 63.0 °F 54.0 °F 72% 29.88 in 10.0 mi NW 12.7 mph 21.9 mph N/A   Clear
8:53 AM 64.9 °F 52.0 °F 63% 29.91 in 10.0 mi WNW 13.8 mph - N/A   Clear
9:53 AM 68.0 °F 48.9 °F 50% 29.91 in 10.0 mi WNW 16.1 mph 25.3 mph N/A   Clear
10:53 AM 70.0 °F 42.1 °F 36% 29.92 in 10.0 mi NNW 17.3 mph 26.5 mph N/A   Clear
11:53 AM 72.0 °F 41.0 °F 33% 29.94 in 10.0 mi NNW 18.4 mph 24.2 mph N/A   Clear
12:53 PM 73.9 °F 44.1 °F 34% 29.92 in 10.0 mi NNW 13.8 mph - N/A   Clear
2:53 PM 75.9 °F 43.0 °F 31% 29.91 in 10.0 mi WNW 13.8 mph - N/A   Clear
3:53 PM 78.1 °F 42.1 °F 28% 29.89 in 10.0 mi West 10.4 mph - N/A   Clear
4:53 PM 77.0 °F 44.1 °F 31% 29.88 in 10.0 mi West 9.2 mph - N/A   Clear
5:53 PM 75.9 °F 45.0 °F 33% 29.90 in 10.0 mi WNW 16.1 mph 23.0 mph N/A   Clear
6:53 PM 73.0 °F 44.1 °F 35% 29.91 in 10.0 mi NW 11.5 mph - N/A   Clear
7:53 PM 70.0 °F 46.0 °F 42% 29.93 in 10.0 mi West 8.1 mph - N/A   Clear
8:53 PM 66.9 °F 48.9 °F 52% 29.94 in 10.0 mi West 5.8 mph - N/A   Clear
9:53 PM 66.0 °F 51.1 °F 59% 29.95 in 10.0 mi WSW 5.8 mph - N/A   Clear
10:53 PM 66.0 °F 53.1 °F 63% 29.96 in 10.0 mi West 5.8 mph - N/A   Clear
11:53 PM 64.0 °F 54.0 °F 70% 29.97 in 10.0 mi WSW 6.9 mph - N/A   Clear